Wind_Speed
47 45 46 46 46 46 47 48 50 49 50 48 47 49 50 51 51 50 50 50 50 49 47 46 46 46 45 44 43 43 42 41 40 39 39 38 37 37 36 37 37 37 38 37
49 47 47 48 47 48 48 49 50 51 51 47 49 50 51 51 50 49 49 49 48 48 47 45 45 44 44 44 42 41 40 39 38 37 36 36 35 35 34 34 35 35 36 36
50 49 50 51 48 48 48 48 49 51 50 48 49 50 49 50 49 48 47 47 47 46 46 44 43 43 42 41 39 38 37 37 36 35 35 34 34 33 32 32 32 32 34 36
49 50 53 51 48 48 49 49 49 50 49 49 49 49 49 48 48 47 46 46 46 45 44 42 41 40 38 37 36 35 35 35 33 32 33 32 31 31 30 31 31 31 33 34
49 51 53 50 48 47 48 49 47 48 48 49 49 49 47 47 47 46 46 46 45 44 43 41 39 38 37 36 34 34 33 33 31 30 30 30 30 29 28 29 30 31 32 33
48 50 52 49 47 47 48 50 47 47 48 48 48 47 46 46 46 46 45 45 45 44 41 39 38 37 36 34 33 32 32 31 30 29 28 28 27 27 26 26 27 30 31 32
48 49 50 47 46 46 47 48 48 48 48 48 47 47 46 45 45 45 45 44 44 42 40 38 38 37 36 34 32 30 30 29 28 26 25 26 26 26 25 25 25 26 28 30
48 48 47 45 45 45 46 47 48 48 48 47 47 46 46 46 46 45 45 44 42 41 40 39 38 37 35 33 31 29 28 27 26 25 25 26 26 25 25 25 25 26 28 29
47 47 46 45 45 46 46 47 47 48 48 47 47 46 46 46 45 45 44 43 42 41 40 38 37 36 34 32 30 28 26 25 24 24 25 25 26 26 26 26 26 26 27 29
47 46 45 45 46 47 47 47 47 48 47 47 47 46 45 44 44 43 42 41 41 40 38 37 36 35 33 31 29 27 25 25 24 23 24 25 25 25 26 25 25 25 27 28
47 46 47 46 47 47 48 47 47 46 46 46 45 44 43 43 43 42 41 40 39 38 37 35 34 33 31 30 28 26 25 24 23 22 22 23 24 24 25 25 25 26 27 28
44 44 46 45 45 45 45 45 44 43 43 43 43 43 43 42 42 41 39 38 37 36 35 34 33 32 30 28 26 25 25 24 23 22 22 23 24 24 26 26 25 25 27 28
41 42 43 42 42 42 42 42 42 41 41 41 41 42 41 40 39 38 36 36 35 34 33 33 31 30 28 27 25 25 25 24 23 23 23 23 23 24 26 27 26 25 27 28
39 39 39 39 39 40 40 40 39 39 40 40 40 39 38 37 36 35 34 34 33 32 31 30 29 28 27 26 25 25 25 25 24 24 24 24 23 24 26 26 26 26 28 29
36 36 36 36 36 37 37 36 36 36 37 37 37 36 35 34 34 33 33 32 31 30 29 28 27 26 25 24 24 24 24 24 24 24 24 24 24 25 27 28 27 27 27 28
33 34 34 34 34 34 34 34 34 34 34 34 34 33 32 32 32 32 31 31 30 28 27 26 25 24 24 24 23 23 23 23 23 23 24 24 24 25 27 28 28 28 29 29
30 31 32 32 32 32 32 32 32 32 32 32 31 31 30 31 31 31 30 28 27 26 25 24 23 23 23 23 22 21 21 22 22 23 23 23 23 24 26 28 30 30 30 30
29 30 30 30 30 30 30 31 31 31 30 29 29 29 29 30 29 28 27 26 25 24 23 22 21 21 21 21 20 19 20 20 21 21 22 22 23 24 26 27 30 31 31 30
27 27 27 28 29 28 28 28 27 26 26 26 27 27 27 26 26 25 24 23 22 21 20 20 19 18 18 17 17 17 18 19 20 21 21 22 23 24 26 28 29 31 31 31
25 26 26 26 25 24 23 23 23 24 24 24 24 23 23 23 23 21 20 19 19 19 18 18 17 15 14 14 15 16 17 18 20 21 22 23 24 24 27 28 30 31 31 31
23 23 22 21 21 21 21 21 21 21 21 21 21 20 20 20 20 19 18 18 18 17 17 16 14 14 13 13 14 15 16 18 20 22 23 24 25 26 28 29 31 31 31 31
19 19 19 18 18 18 19 19 19 19 19 19 19 19 19 18 18 18 18 17 17 16 16 15 13 13 13 13 13 15 16 17 19 22 23 24 25 26 28 30 31 31 32 32
17 17 17 16 17 17 18 18 18 18 18 18 18 17 17 17 17 17 17 16 16 15 14 13 13 12 11 11 12 13 15 17 19 22 23 24 25 27 28 30 32 32 32 33
16 16 16 16 16 16 17 17 17 17 17 17 17 16 16 16 16 15 13 13 12 11 11 11 11 10 9 9 10 12 14 16 19 21 23 24 26 27 29 31 32 33 33 32
14 14 14 14 15 15 15 16 16 16 16 16 15 15 15 14 13 11 10 10 9 8 7 7 7 7 8 9 10 11 14 16 19 21 24 25 26 28 30 31 31 32 32 32
13 13 13 13 13 13 13 14 14 14 14 14 13 13 12 11 9 8 7 6 5 5 5 5 6 7 8 9 10 12 14 16 19 22 24 26 27 29 30 31 32 32 32 31
12 12 11 11 11 11 11 11 10 10 10 9 9 8 8 8 6 4 3 3 3 3 4 5 6 7 9 10 11 14 16 17 20 23 26 28 29 29 30 31 31 31 31 30
Wind_Direction
274 274 276 278 280 281 282 284 286 290 291 295 295 294 295 296 297 298 299 300 300 299 299 297 295 294 292 292 290 287 283 281 278 274 270 266 263 263 260 257 252 249 245 242
272 273 274 275 278 280 282 285 287 289 291 295 293 293 294 296 296 297 298 299 299 299 299 298 297 294 293 292 290 286 282 280 277 272 268 264 262 260 258 253 249 248 244 239
271 272 273 274 279 281 282 284 286 288 292 292 292 293 294 295 296 296 298 299 299 299 299 300 298 295 294 293 290 286 282 279 275 270 266 263 259 256 254 251 248 244 240 236
270 271 271 277 279 280 282 284 286 288 289 290 291 292 293 295 296 296 296 297 299 300 299 299 298 295 294 293 290 286 282 278 273 269 265 260 255 251 250 247 243 239 236 232
269 271 274 276 280 282 283 283 286 288 289 290 290 291 292 294 295 295 295 297 299 299 299 299 298 296 294 293 289 286 281 275 270 266 261 256 251 249 249 245 239 235 231 230
269 272 274 278 281 282 282 283 286 288 289 289 290 291 292 292 293 294 295 296 298 298 298 298 296 296 295 293 289 284 279 273 268 265 260 255 250 247 245 242 236 229 228 229
268 272 275 278 280 282 283 286 287 287 288 289 290 291 291 291 292 293 295 296 297 297 296 296 295 295 295 294 289 283 277 271 265 261 257 251 246 242 241 239 235 230 227 226
268 270 274 278 279 280 282 284 286 287 288 288 289 289 290 291 292 293 294 295 295 294 294 294 295 294 293 292 288 282 274 267 261 257 254 248 243 240 237 236 234 232 228 224
269 271 274 276 278 279 281 283 285 286 287 287 288 288 289 290 291 292 293 293 292 292 293 293 293 293 293 290 285 278 272 264 258 255 251 246 241 240 236 233 231 229 224 219
270 272 274 276 278 280 282 283 285 286 287 288 288 289 289 290 290 292 292 292 291 291 291 292 291 291 291 289 283 276 269 263 258 254 249 244 239 236 231 227 224 221 218 216
271 273 274 276 279 281 282 283 284 286 287 288 289 289 290 290 291 291 291 291 290 290 290 290 290 290 289 286 280 272 264 259 256 253 248 242 237 234 229 225 222 219 217 215
272 273 274 276 277 278 280 282 284 285 287 288 289 290 290 290 291 290 290 289 289 289 288 289 288 287 285 282 277 270 263 258 254 251 246 241 235 231 227 224 221 218 215 212
272 272 273 275 276 277 279 281 283 285 287 288 289 290 291 290 290 289 290 289 288 288 288 287 286 284 282 278 274 268 262 255 251 246 242 239 233 228 224 223 220 216 210 208
272 273 274 275 277 279 281 282 284 286 287 288 289 290 290 290 289 290 290 290 288 287 288 286 283 281 279 276 272 267 259 252 246 242 239 236 231 225 220 218 215 211 206 205
271 273 275 277 279 281 283 284 285 286 288 289 290 291 290 291 291 290 290 289 287 287 286 283 280 279 276 274 271 265 256 249 244 238 236 232 228 222 217 214 210 206 204 202
274 276 278 279 281 283 284 285 286 287 288 289 290 290 290 290 290 289 288 287 286 286 284 282 280 278 277 274 270 262 252 246 240 234 231 227 222 217 212 209 207 204 202 201
275 277 279 281 283 284 285 287 288 288 288 289 289 289 290 290 289 289 287 286 285 284 282 281 280 277 274 272 267 257 248 242 235 228 224 221 217 213 209 207 205 202 200 199
276 278 280 282 283 283 284 285 286 288 289 289 289 289 290 290 289 288 286 285 285 283 280 280 279 277 273 268 260 250 243 236 229 223 219 215 213 209 204 201 200 199 198 198
278 280 282 283 283 284 285 286 287 288 289 290 290 289 289 289 289 288 285 283 282 279 279 280 279 276 271 262 252 242 234 229 223 217 213 210 207 206 203 200 198 197 195 196
280 281 282 283 283 284 285 286 288 290 292 293 292 290 290 291 291 288 285 284 282 278 277 279 276 272 266 257 246 236 229 225 219 212 209 206 205 203 201 199 198 196 194 194
284 285 285 284 284 285 285 287 289 292 294 293 293 292 291 291 290 288 285 284 282 280 277 276 270 265 261 253 242 234 227 223 217 211 208 205 202 201 199 197 196 194 192 192
286 286 284 284 286 287 287 288 291 293 294 294 295 295 292 292 291 289 286 283 281 280 277 272 265 261 258 252 242 232 224 218 211 206 203 201 199 197 194 192 190 190 188 187
285 284 282 284 286 287 289 290 291 292 294 295 296 296 295 294 293 288 285 282 280 277 272 266 261 258 254 246 236 225 215 208 203 200 197 196 194 192 189 185 185 185 185 186
282 281 282 284 285 286 288 290 291 294 297 298 297 297 297 296 295 292 288 284 279 275 268 261 255 251 243 231 219 211 205 199 196 194 192 189 187 185 182 181 181 182 183 184
285 284 283 284 286 288 289 291 294 298 301 301 300 299 298 297 295 293 291 285 275 267 260 254 247 234 219 209 203 198 192 190 188 187 185 183 182 181 179 178 178 179 180 180
289 288 287 289 290 291 293 296 299 301 304 305 303 303 303 302 298 294 291 284 270 254 248 240 225 210 200 194 190 186 183 182 182 181 180 178 176 176 175 176 176 177 177 177
290 289 290 292 294 295 299 304 306 307 311 314 315 316 316 314 309 301 291 279 260 243 226 208 195 188 184 182 180 177 176 175 175 175 174 174 172 172 173 173 174 175 175 176
Height
5590 5589 5586 5585 5585 5583 5579 5577 5573 5573 5570 5570 5565 5559 5554 5550 5545 5540 5535 5530 5524 5520 5515 5510 5505 5500 5496 5491 5487 5483 5480 5478 5476 5475 5474 5474 5474 5475 5475 5477 5479 5481 5484 5488
5575 5576 5573 5571 5573 5571 5568 5565 5561 5558 5557 5558 5551 5546 5541 5537 5532 5528 5523 5518 5512 5507 5503 5498 5493 5488 5483 5479 5474 5471 5468 5466 5464 5463 5463 5464 5464 5465 5466 5467 5469 5472 5476 5480
5561 5562 5557 5558 5564 5561 5557 5554 5550 5545 5546 5543 5538 5533 5529 5525 5520 5516 5511 5506 5501 5496 5491 5486 5481 5476 5471 5467 5462 5459 5457 5455 5453 5453 5453 5454 5455 5456 5457 5459 5461 5463 5467 5472
5546 5546 5542 5550 5551 5548 5543 5541 5538 5534 5532 5529 5524 5521 5517 5513 5508 5504 5499 5495 5490 5485 5480 5475 5470 5465 5460 5456 5452 5449 5447 5445 5444 5443 5444 5445 5446 5448 5449 5451 5453 5456 5460 5465
5533 5530 5528 5536 5537 5534 5529 5527 5527 5521 5518 5515 5511 5508 5506 5501 5496 5491 5487 5483 5478 5473 5469 5464 5459 5455 5450 5447 5443 5440 5438 5436 5435 5435 5436 5437 5439 5440 5442 5444 5446 5450 5453 5458
5519 5517 5516 5524 5523 5519 5515 5512 5514 5509 5505 5501 5498 5495 5494 5489 5484 5480 5476 5471 5467 5462 5458 5454 5449 5445 5441 5437 5434 5431 5429 5428 5427 5427 5429 5430 5432 5433 5435 5437 5439 5444 5448 5453
5507 5503 5503 5510 5508 5505 5503 5501 5498 5495 5491 5488 5485 5482 5480 5476 5472 5468 5464 5459 5455 5451 5447 5443 5439 5435 5431 5428 5425 5423 5421 5420 5420 5420 5421 5423 5424 5427 5429 5431 5434 5438 5443 5447
5495 5492 5495 5496 5494 5492 5489 5486 5483 5480 5478 5475 5472 5469 5466 5463 5459 5456 5452 5448 5443 5439 5436 5432 5428 5425 5422 5419 5416 5414 5413 5412 5412 5413 5414 5416 5418 5420 5423 5425 5428 5432 5436 5440
5482 5483 5483 5480 5479 5477 5475 5472 5470 5467 5465 5462 5459 5457 5454 5451 5447 5443 5440 5436 5432 5428 5425 5422 5418 5415 5412 5410 5407 5406 5405 5405 5406 5406 5408 5409 5411 5414 5416 5419 5423 5426 5430 5435
5469 5470 5470 5467 5465 5463 5461 5458 5456 5454 5452 5449 5446 5444 5441 5438 5435 5431 5428 5424 5420 5417 5414 5412 5408 5405 5402 5400 5399 5398 5398 5398 5399 5400 5401 5403 5405 5408 5410 5413 5417 5420 5425 5430
5455 5457 5455 5454 5452 5450 5448 5446 5443 5441 5439 5436 5433 5431 5428 5425 5422 5419 5416 5413 5409 5406 5403 5401 5398 5396 5393 5391 5390 5390 5390 5390 5391 5392 5394 5396 5399 5401 5404 5407 5411 5416 5420 5425
5443 5444 5441 5441 5440 5437 5435 5433 5431 5429 5427 5424 5421 5418 5415 5413 5410 5407 5404 5401 5398 5395 5393 5391 5388 5386 5384 5383 5382 5382 5383 5383 5385 5386 5388 5390 5392 5395 5398 5402 5406 5410 5415 5420
5429 5429 5428 5427 5426 5424 5422 5421 5419 5416 5414 5412 5409 5406 5403 5400 5398 5395 5393 5390 5387 5385 5383 5381 5379 5377 5375 5374 5373 5374 5374 5376 5377 5379 5381 5384 5386 5389 5393 5397 5401 5405 5410 5416
5417 5416 5416 5415 5414 5412 5411 5409 5407 5405 5402 5400 5397 5394 5391 5389 5387 5384 5382 5379 5377 5375 5373 5371 5369 5368 5366 5365 5365 5365 5366 5367 5369 5371 5374 5377 5380 5383 5387 5391 5395 5400 5406 5411
5406 5406 5405 5404 5403 5401 5400 5398 5396 5394 5391 5389 5386 5383 5381 5379 5376 5374 5372 5369 5367 5365 5363 5361 5360 5359 5357 5357 5357 5357 5358 5360 5362 5364 5367 5370 5373 5377 5381 5385 5390 5395 5401 5406
5397 5396 5395 5394 5393 5391 5389 5387 5385 5383 5381 5378 5376 5373 5371 5368 5366 5364 5362 5359 5358 5356 5354 5353 5351 5350 5349 5349 5348 5349 5350 5352 5354 5357 5360 5363 5367 5371 5375 5380 5385 5390 5396 5402
5388 5387 5386 5384 5383 5381 5379 5377 5375 5373 5371 5368 5366 5364 5361 5359 5357 5354 5352 5350 5348 5347 5346 5344 5343 5342 5341 5341 5341 5341 5343 5345 5347 5350 5354 5358 5361 5366 5370 5374 5380 5386 5392 5399
5378 5377 5376 5375 5373 5371 5370 5367 5365 5363 5361 5359 5356 5354 5352 5349 5347 5345 5343 5341 5340 5339 5337 5336 5335 5334 5333 5333 5333 5335 5337 5339 5341 5345 5348 5352 5356 5360 5365 5370 5375 5382 5389 5396
5369 5368 5367 5365 5364 5362 5360 5358 5356 5354 5352 5350 5348 5345 5343 5341 5338 5336 5335 5333 5332 5331 5330 5329 5328 5327 5326 5326 5327 5329 5331 5333 5336 5339 5343 5347 5352 5356 5361 5367 5372 5379 5385 5392
5361 5360 5358 5356 5355 5353 5351 5350 5348 5346 5344 5341 5339 5337 5335 5333 5331 5329 5327 5326 5324 5324 5323 5322 5321 5321 5321 5321 5322 5323 5325 5328 5331 5335 5339 5343 5348 5353 5357 5363 5369 5375 5382 5389
5353 5351 5350 5348 5347 5346 5344 5342 5341 5339 5336 5334 5332 5330 5328 5326 5324 5322 5320 5319 5318 5317 5316 5315 5315 5315 5316 5316 5317 5319 5321 5323 5326 5330 5334 5339 5344 5349 5354 5360 5366 5372 5379 5386
5346 5344 5343 5342 5340 5339 5337 5336 5334 5332 5330 5328 5325 5323 5321 5319 5317 5315 5314 5313 5311 5310 5309 5309 5309 5310 5310 5311 5312 5314 5316 5319 5322 5326 5330 5335 5340 5345 5351 5357 5363 5370 5377 5384
5339 5338 5337 5336 5334 5333 5331 5329 5328 5326 5324 5322 5319 5317 5315 5313 5311 5309 5308 5306 5305 5304 5304 5304 5304 5305 5305 5306 5308 5310 5312 5315 5319 5323 5327 5332 5337 5343 5348 5354 5361 5368 5375 5383
5333 5332 5331 5330 5329 5327 5326 5324 5322 5320 5318 5316 5313 5311 5309 5307 5305 5303 5302 5301 5300 5299 5299 5299 5300 5300 5301 5303 5304 5307 5309 5313 5316 5320 5325 5330 5335 5341 5347 5354 5361 5368 5375 5382
5328 5327 5325 5324 5323 5322 5320 5318 5317 5315 5312 5310 5308 5306 5304 5302 5301 5299 5297 5296 5296 5295 5295 5296 5296 5297 5298 5300 5302 5304 5307 5311 5315 5319 5323 5329 5334 5341 5347 5354 5361 5367 5374 5381
5322 5321 5320 5319 5318 5316 5315 5314 5312 5310 5308 5306 5304 5302 5300 5298 5297 5295 5294 5293 5293 5293 5293 5293 5294 5295 5296 5298 5300 5303 5306 5310 5313 5318 5323 5329 5335 5341 5348 5354 5361 5368 5374 5381
5317 5316 5315 5314 5313 5312 5311 5309 5308 5306 5304 5302 5301 5299 5297 5296 5294 5293 5292 5291 5291 5291 5291 5292 5293 5294 5295 5297 5299 5302 5305 5309 5314 5318 5324 5330 5336 5342 5348 5355 5362 5368 5375 5381